Location: Heisler
(52.6701°N, 112.2239°W)
Time: 09:00:42
(UTC+00:00)

Envisat - Pass Details

Date: 08 December 2021
Orbit: 764 x 766 km, 98.2° (Epoch: 25 January)

Event Time Altitude Azimuth Distance (km) Brightness Sun altitude
Rises 01:00:18 0° 215° (SW) 3,224 7.1 -14.9°
Reaches altitude 10° 01:03:31 10° 236° (WSW) 2,304 6.7 -15.4°
Maximum altitude 01:06:35 16° 274° (W) 1,928 6.1 -15.8°
Drops below altitude 10° 01:09:40 10° 311° (NW) 2,315 5.9 -16.3°
Sets 01:12:56 0° 333° (NNW) 3,247 6.4 -16.7°
